Regional Weather Roundup
Issued by NWS Cleveland, OH

Home | Current Version | Previous Version | Text Only | Print | Product List | Glossary Off
Versions: 1 2 3 4 5 6 7 8 9 10 11 12 13 14 15 16 17 18 19 20 21 22 23 24 25 26 27 28 29 30 31 32 33 34 35 36 37 38 39 40 41 42 43 44 45 46 47 48 49 50

000
ASUS41 KCLE 191010
RWRCLE
OHIO REGIONAL WEATHER ROUNDUP
NATIONAL WEATHER SERVICE WILMINGTON, OH
600 AM EDT TUE SEP 19 2017

NOTE: "FAIR" INDICATES FEW OR NO CLOUDS BELOW 12,000 FEET WITH NO
SIGNIFICANT WEATHER AND/OR OBSTRUCTIONS TO VISIBILITY.

OHZ001>008-015>018-024>027-034-035-043-044-191100-
   NORTHWEST OHIO

CITY           SKY/WX    TMP DP  RH WIND       PRES   REMARKS
DEFIANCE       FOG       66  65  96 E5        29.97S VSB 3/4
FINDLAY        MOCLDY    68  64  87 E6        29.96F FOG
TOLEDO EXPRESS CLOUDY    65  32  29 NE6       29.98F
TOLEDO EXEC    CLOUDY    67  65  93 NE5       29.99S
LIMA           FAIR      68  66  93 SE3       29.97S
$$

OHZ009>014-019>023-028>033-038-089-191100-
   NORTHEAST OHIO

CITY           SKY/WX    TMP DP  RH WIND       PRES   REMARKS
CLE-HOPKINS    MOCLDY    67  63  87 CALM      30.01S
CLE-LAKEFRONT  FAIR      68  61  78 CALM      29.98S
CUY CO. ARPT   NOT AVBL
LORAIN-ELYRIA  MOCLDY    65  59  81 NW3       30.00S
ASHTABULA      FAIR      64  64 100 SE6       30.03S
AKRON-CANTON   FAIR      65  59  81 CALM      30.02S
WOOSTER        FAIR      58  57  97 CALM      30.02S FOG
MANSFIELD      CLOUDY    67  64  90 S3        30.01S
YOUNGSTOWN     MOCLDY    62  62 100 SE8       30.02F
$$

OHZ042-051>053-060>062-070>072-077>081-191100-
  SOUTHWEST OHIO

CITY           SKY/WX    TMP DP  RH WIND       PRES   REMARKS
CINC-COVINGTON CLOUDY    69  67  93 S7        29.96F
CINC-LUNKEN    MOCLDY    66  66 100 CALM      29.97S FOG
HAMILTON       MOCLDY    68  66  93 CALM      29.97F
DAYTON         CLOUDY    67  65  93 S6        29.98F
WRIGHT-PAT AFB CLOUDY    67  67 100 CALM      29.97F
DAYTON GENERAL LGT RAIN  69  64  84 SE7       29.96F
WILMINGTON     MOCLDY    68  65  90 CALM      29.99R
$$

OHZ036-037-039>041-045>050-054>059-063>069-073>076-082>088-191100-
  CENTRAL AND SOUTHEAST OHIO

CITY           SKY/WX    TMP DP  RH WIND       PRES   REMARKS
COLUMBUS       CLOUDY    69  66  90 SE3       29.98S
OSU AIRPORT    FAIR      67  67 100 CALM      29.98S
BOLTON FIELD   CLOUDY    66  66  98 CALM      29.99S
RICKENBACK AFB MOCLDY    66  65  99 CALM      29.98S
NEWARK         CLOUDY    67  65  93 CALM      29.99S FOG
MARION         MOCLDY    67  63  87 CALM      29.99S
LANCASTER      CLOUDY    65  65 100 CALM      30.00S
ZANESVILLE     FAIR      61  58  90 CALM      30.00S
NEW PHILLY     FOG       59  59 100 CALM      30.02S VSB 3/4
$$




USA.gov is the U.S. government's official web portal to all federal, state and local government web resources and services.